Location: Eastlake (historical)
(39.0077°N, 122.6678°W)
Time: 11:49:46
(UTC+00:00)

Okean O Rocket - Pass Details

Date: 25 November 2020
Orbit: 622 x 645 km, 98.2° (Epoch: 25 January)

Event Time Altitude Azimuth Distance (km) Brightness Sun altitude
Rises 14:33:48 0° 12° (NNE) 2,951 4.9 -6.4°
Reaches altitude 10° 14:36:01 10° 13° (NNE) 2,040 4.1 -6.0°
Maximum altitude 14:40:28 88° 100° (E) 649 1.7 -5.2°
Drops below altitude 10° 14:44:55 10° 194° (SSW) 2,034 4.4 -4.4°
Sets 14:47:07 0° 194° (SSW) 2,940 5.2 -4.0°
